星链-1414 (STARLINK-1414 )

导读

STARLINK-1414是美国太空探索技术公司(SpaceX)星链星座的成员,于2020年6月4日发射入轨。星链计划旨在构建全球卫星互联网,该卫星承担低轨通信任务,为全球偏远地区等提供网络接入服务,助力提升全球通信覆盖范围与连接能力。

Basic Information
目录编号:
45690
目录名称:
STARLINK-1414
国际标识:
2020-035AK
轨道中心:
EARTH
卫星名称:
星链-1414
卫星全名:
星链-1414 (STARLINK-1414 )
卫星状态:
已陨落 最后检测时间 2025-04-08
发射日期:
2020-06-04 UTC
国别 :
美国 (US)
星等 :
--
Orbit Information
数据来源 国际轨道数据
星历时间: 2025-04-08T08:21:51+0800
轨道信息已过期436天
半长轴: 6531.409km
偏心率: 0.0008727
轨道倾角: 53.024°
近地点辐角 257.074°
升交点赤经 70.022°
平近点角 223.156°
近地点: 147.574km
远地点: 158.974km
周期: 87.553分钟
每日圈数: 16.447219
Detailed Information
固有亮度:
5
最大亮度:
2.5
卫星平台:
Starlink V1.0
覆盖范围:
全球
运营商:
太空探索技术公司
运营商所在国:
美国
制造商(研发单位):
太空探索技术公司
制造商所在国:
美国
使用方式:
暂无
Satellite Introduction
星链(Starlink)计划是由太空探索技术公司(SpaceX)提出的一个巨型低轨卫星互联网星座项目,计划在2019年至2024年间在太空搭建由约1.2万颗卫星组成的“星链”网络,其中1584颗将部署在地球上空550千米处的近地轨道,并从2020年开始工作。该卫星仍在工作。